This is the latest recevied weather packets stored in our database for station/object 9W2IJB-3. If no packets are shown the sender has not sent any weather packets the latest 10 day(s).
| Time | Temp. | Humidity | Pressure | Rain* | Wind** | Luminosity | Snow |
|---|---|---|---|---|---|---|---|
| 1777341474 | 27.22° C | 76% | 1022.1 hPa | - | - | - | - |
| 1777340311 | 27.22° C | 76% | 1022 hPa | - | - | - | - |
| 1777340273 | 27.22° C | 76% | 1022 hPa | - | - | - | - |
| 1777339073 | 26.67° C | 77% | 1022 hPa | - | - | - | - |
| 1777337873 | 26.67° C | 77% | 1021.6 hPa | - | - | - | - |
| 1777336835 | 26.11° C | 77% | 1021.3 hPa | - | - | - | - |
| 1777336673 | 26.11° C | 77% | 1021.3 hPa | - | - | - | - |
| 1777335473 | 26.11° C | 77% | 1021 hPa | - | - | - | - |
| 1777334273 | 25.56° C | 77% | 1020.8 hPa | - | - | - | - |
| 1777333073 | 25.56° C | 78% | 1020.5 hPa | - | - | - | - |
| 1777331872 | 25.56° C | 77% | 1020.1 hPa | - | - | - | - |
| 1777330672 | 25.56° C | 77% | 1019.9 hPa | - | - | - | - |
| 1777329472 | 25.56° C | 77% | 1019.7 hPa | - | - | - | - |
| 1777328272 | 25.56° C | 77% | 1019.6 hPa | - | - | - | - |
| 1777327072 | 25.56° C | 77% | 1019.5 hPa | - | - | - | - |
| 1777325872 | 25.56° C | 77% | 1019.4 hPa | - | - | - | - |
| 1777324672 | 25.56° C | 77% | 1019.5 hPa | - | - | - | - |
| 1777323472 | 25.56° C | 76% | 1019.6 hPa | - | - | - | - |
| 1777322272 | 25.56° C | 78% | 1019.5 hPa | - | - | - | - |
| 1777321072 | 25.56° C | 76% | 1019.3 hPa | - | - | - | - |
| 1777319872 | 25° C | 76% | 1019.5 hPa | - | - | - | - |
| 1777318672 | 25.56° C | 76% | 1019.5 hPa | - | - | - | - |
| 1777317472 | 25.56° C | 76% | 1019.8 hPa | - | - | - | - |
| 1777316272 | 25.56° C | 76% | 1020 hPa | - | - | - | - |
| 1777315072 | 25° C | 76% | 1020.3 hPa | - | - | - | - |
* Rain since midnight (hover to see other rain measurements)
** Current wind speed in m/s (hover to see current wind gust speed)